Showing default

SKYBEE-A01, 62671

Orbit data source: Space-Track

SKYBEE-A01, 62671 is a payload satellite owned by ConstellR (DE) in SSO that was launched on Tue, 14 Jan 2025 UTC via an FALCON 9 launch vehicle from the Air Force Western Test Range (AFWTR). Payload-class satellites include a variety of spacecraft equipped with specific instruments for various scientific and technological missions. These include communications satellites like Starlink; space stations such as the ISS; scientific satellites like the Hubble; Earth observation satellites from companies like Planet Labs, Umbra, and HawkEye 360; GPS; miniature CubeSats for education and research; and military/defense satellites.

Loading next visibility...
Identifier
62671, 2025-009BQ
Orbit
SSO
Last TLE update
9 hours ago
Origin
Manufacturer
NanoAvionics
Mission
Operational Commercial Imaging
Bus & Motor
CUBESAT 16U MP42, Unknown motor
Mass
110 kg wet, 110 kg dry
Launch date (UTC)
2025-01-14 (6 months ago)
Launch vehicle
FALCON 9
Launch site
Air Force Western Test Range (AFWTR)
Object type
Payload
Rocket body
Debris
Shape & HBR
Box + 2 Pan, 1 m
Radar Cross Section
0.146 m², Medium (>0.1 m² and < 1m²)

Expand to show TLE details & history

TLE from 9 hours ago
0 SKYBEE-A01
1 62671U 25009BQ  25187.56157579  .00002196  00000-0  10958-3 0  9990
2 62671  97.4306 267.2018 0007205 100.2171 259.9876 15.18531406 83848
Epoch: 2025-07-06T13:28Z
TLE epoch observation values (Epoch: 2025-07-06T13:28:40.148Z)
Latitude
-0.00002°
Longitude
140.25102°
Altitude
514.232 km
Speed
7.606 km/s
True Right ascension
17h 48m 48s
True Declination
0° 00' 00"
Sunlit
Object was in full shadow at epoch
Visualization orbit readout
Latitude
-37.95284°
Longitude
146.43888°
Altitude
528.421 km
Speed
7.595 km/s
Apparent Right ascension
20h 22m 28s
Apparent Declination
-44° 07' 30"
Sunlit
Object is in full shadow
Visualization observer readout
Local Sidereal Time
10:48:07
Azimuth
110.971° ESE
Elevation
-62.85°
Doppler factor
1
Orbital elements
Apogee altitude
512.208 km
Perigee altitude
502.286 km
Semi-major axis
6,885.384 km
Eccentricity
0.00072
Inclination
97.4306°
RAAN
267.2018°
Arg. of periapsis
100.2171°
True anomaly
Unknown
Mean anomaly
259.9876°
Eccentric anomaly
Unknown
Mean motion
3.79884 °/min
Orbital period
94.77 mins
BSTAR
0.00010958
Loading maneuver chart data...
Loading SW <> Apogee altitude chart data...
Loading historical data...
Loading historical data...
Loading historical data...
Loading historical data...
Loading historical data...
Loading historical data...
Loading historical data...

SKYBEE-A01 Visibility forecast

Observer location: undefined°, undefined°

Span
Click to sort rows by Start time (UTC) header in descending order
Start Az.
Max El. time (UTC)
Max El. Az.
Max El.
End time (UTC)
End Az.
6 mins2025-07-07 05:24:55.984Z170.081° S2025-07-07 05:27:55.984Z206.319° SW44.354°2025-07-07 05:30:55.984Z345.472° N
5 mins2025-07-07 18:30:55.984Z353.816° N2025-07-07 18:32:55.984Z301.845° NW37.144°2025-07-07 18:35:55.984Z213.54° SW
|